Starlink 11673

operational
NORAD ID: 64318 Int'l Des: 2025-124 Owner: SPXS Country: US Constellation: starlink
LEOCIRCULAR

Starlink 11673について

説明を読み込み中...

リアルタイム位置

3D地球を読み込み中...

次回通過

高度履歴

Altitude vs Time

uPlot chart will show altitude changes over time

軌道要素

1 64318U 25124B 25353.50626688 .00180155 00000-0 13725-2 0 9995
2 64318 43.0006 152.5328 0003259 288.3664 71.6849 15.70920180 30224
Epoch: Dec 19, 2025 • Age: 10 hours

現在のステータス

高度 365.0 km
速度 7.69 km/s
衛星直下点 -36.47°S, 41.62°W
打ち上げ日 Jun 10, 2025
運用期間 0.5 years
タイプ internet

技術仕様

分類 Payload
質量 960.00 kg
乾燥質量 910.00 kg
総質量 960.00 kg
長さ 0.30 m
直径 4.10 m
スパン 29.00 m
形状 Box + pan
製造者 SPXS
バスタイプ Starlink V2MD
フェーズステータス In Orbit
所有者/国 SPXS/US

大規模コンステレーション

Loading constellations...